C/2019 L3 ( ATLAS )

Japanese version
Home page
Updated on April 4, 2021

---------------------------------------------------------------------

* Profile

Discovery Date June 10, 2019
Magnitude 18.1 mag
Discoverer Asteroid Terrestrial-Impact Last Alert System (ATLAS) search program

* Pictures

* Orbital Elements

Epoch 2022 Jan. 21.0 TT = JDT 2459600.5
T 2022 Jan.  9.61712 TT                                 Rudenko
q   3.5544659            (2000.0)            P               Q
z  -0.0004542      Peri.  171.61109     -0.26052822     -0.66630632
 +/-0.0000008      Node   290.79033     +0.83676091     +0.20517088
e   1.0016143      Incl.   48.36120     +0.48161834     -0.71689665
From 1661 observations 2019 June 10-2021 Jan. 28, mean residual 0".4.

* Finding Charts

* Magnitudes Graph

        m1 = 0.5 + 5 log d + 14.0 log r

---------------------------------------------------------------------

The orbital elements are published on M.P.E.C. 2021-B143.
The charts are made with StellaNavigator Ver.10 (AstroArts).
The magnitudes graphs are made with Comet for Windows.

---------------------------------------------------------------------

Copyright(C) Seiichi Yoshida (comet@aerith.net). All rights reserved.